Time,TemperatureF,DewpointF,PressureIn,WindDirection,WindDirectionDegrees,WindSpeedMPH,WindSpeedGustMPH,Humidity,HourlyPrecipIn,Conditions,Clouds,dailyrainin,SoftwareType,DateUTC
2013-01-13 00:00:00,44.5,44.2,30.10,East,92,0.0,0.0,99,0.00,,,0.08,Wunderground PWS Mod,2013-01-13 05:00:00,
2013-01-13 00:03:00,44.6,44.1,30.11,East,92,0.0,0.0,98,0.00,,,0.08,Wunderground PWS Mod,2013-01-13 05:03:00,
2013-01-13 00:06:00,44.5,44.0,30.11,East,92,0.0,0.0,98,0.00,,,0.00,Wunderground PWS Mod,2013-01-13 05:06:00,
2013-01-13 00:11:00,44.5,44.2,30.11,East,92,0.0,0.0,99,0.00,,,0.00,Wunderground PWS Mod,2013-01-13 05:11:00,
2013-01-13 00:12:00,44.5,44.2,30.11,East,92,0.0,0.0,99,0.00,,,0.00,Wunderground PWS Mod,2013-01-13 05:12:00,
2013-01-13 00:14:00,44.5,44.2,30.11,N/A,-737280,0.0,0.0,99,0.00,,,0.00,Wunderground PWS Mod,2013-01-13 05:14:00,
2013-01-13 00:17:00,44.5,44.2,30.11,East,92,0.0,0.0,99,0.00,,,0.00,Wunderground PWS Mod,2013-01-13 05:17:00,
2013-01-13 00:23:00,44.5,44.2,30.11,East,92,0.0,0.0,99,0.00,,,0.00,Wunderground PWS Mod,2013-01-13 05:23:00,
2013-01-13 00:28:00,44.4,44.1,30.11,East,92,0.0,0.0,99,0.00,,,0.00,Wunderground PWS Mod,2013-01-13 05:28:00,
2013-01-13 00:34:00,44.5,44.2,30.11,East,92,0.0,0.0,99,0.00,,,0.00,Wunderground PWS Mod,2013-01-13 05:34:00,
2013-01-13 00:40:00,44.5,44.2,30.11,East,92,0.0,0.0,99,0.00,,,0.00,Wunderground PWS Mod,2013-01-13 05:40:00,
2013-01-13 00:45:00,44.5,44.2,30.11,East,92,0.0,0.0,99,0.00,,,0.00,Wunderground PWS Mod,2013-01-13 05:45:00,
2013-01-13 00:51:00,44.5,44.2,30.11,East,92,0.0,0.0,99,0.00,,,0.00,Wunderground PWS Mod,2013-01-13 05:51:00,
2013-01-13 00:56:00,44.5,44.2,30.11,East,92,0.0,0.0,99,0.00,,,0.00,Wunderground PWS Mod,2013-01-13 05:56:00,
2013-01-13 01:01:00,44.5,44.2,30.11,East,92,0.0,0.0,99,0.00,,,0.00,Wunderground PWS Mod,2013-01-13 06:01:00,
2013-01-13 01:06:00,44.4,44.1,30.11,East,92,0.0,0.0,99,0.00,,,0.00,Wunderground PWS Mod,2013-01-13 06:06:00,
2013-01-13 01:12:00,44.4,44.1,30.11,East,92,0.0,0.0,99,0.00,,,0.00,Wunderground PWS Mod,2013-01-13 06:12:00,
2013-01-13 01:17:00,44.3,44.0,30.11,East,92,0.0,0.0,99,0.00,,,0.00,Wunderground PWS Mod,2013-01-13 06:17:00,
2013-01-13 01:23:00,44.3,44.0,30.11,East,92,0.0,0.0,99,0.00,,,0.00,Wunderground PWS Mod,2013-01-13 06:23:00,
2013-01-13 01:28:00,44.3,44.0,30.11,East,92,0.0,0.0,99,0.00,,,0.00,Wunderground PWS Mod,2013-01-13 06:28:00,
2013-01-13 01:34:00,44.2,43.9,30.12,East,92,0.0,0.0,99,0.00,,,0.00,Wunderground PWS Mod,2013-01-13 06:34:00,
2013-01-13 01:40:00,44.2,43.7,30.12,East,92,0.0,0.0,98,0.00,,,0.00,Wunderground PWS Mod,2013-01-13 06:40:00,
2013-01-13 01:45:00,44.2,43.7,30.12,East,92,0.0,0.0,98,0.00,,,0.00,Wunderground PWS Mod,2013-01-13 06:45:00,
2013-01-13 01:50:00,44.2,43.7,30.12,East,92,0.0,0.0,98,0.00,,,0.00,Wunderground PWS Mod,2013-01-13 06:50:00,
2013-01-13 01:56:00,44.2,43.7,30.12,East,92,0.0,0.0,98,0.00,,,0.00,Wunderground PWS Mod,2013-01-13 06:56:00,
2013-01-13 02:01:00,44.2,43.7,30.12,East,93,0.0,0.0,98,0.00,,,0.00,Wunderground PWS Mod,2013-01-13 07:01:00,
2013-01-13 02:06:00,44.1,43.6,30.11,East,92,0.0,0.0,98,0.00,,,0.00,Wunderground PWS Mod,2013-01-13 07:06:00,
2013-01-13 02:12:00,44.1,43.6,30.11,East,92,0.0,0.0,98,0.00,,,0.00,Wunderground PWS Mod,2013-01-13 07:12:00,
2013-01-13 02:18:00,44.1,43.6,30.11,East,92,0.0,0.0,98,0.00,,,0.00,Wunderground PWS Mod,2013-01-13 07:18:00,
2013-01-13 02:23:00,44.1,43.6,30.12,East,92,0.0,0.0,98,0.00,,,0.00,Wunderground PWS Mod,2013-01-13 07:23:00,
2013-01-13 02:29:00,44.1,43.6,30.11,East,92,0.0,0.0,98,0.00,,,0.00,Wunderground PWS Mod,2013-01-13 07:29:00,
2013-01-13 02:34:00,44.1,43.6,30.11,East,92,0.0,0.0,98,0.00,,,0.00,Wunderground PWS Mod,2013-01-13 07:34:00,
2013-01-13 02:39:00,44.1,43.6,30.11,East,92,0.0,0.0,98,0.00,,,0.00,Wunderground PWS Mod,2013-01-13 07:39:00,
2013-01-13 02:45:00,44.1,43.6,30.11,East,92,0.0,0.0,98,0.00,,,0.00,Wunderground PWS Mod,2013-01-13 07:45:00,
2013-01-13 02:50:00,44.1,43.8,30.12,East,92,0.0,0.0,99,0.00,,,0.00,Wunderground PWS Mod,2013-01-13 07:50:00,
2013-01-13 02:55:00,44.0,43.7,30.12,East,92,0.0,0.0,99,0.00,,,0.00,Wunderground PWS Mod,2013-01-13 07:55:00,
2013-01-13 03:01:00,44.1,43.8,30.12,East,92,0.0,0.0,99,0.00,,,0.00,Wunderground PWS Mod,2013-01-13 08:01:00,
2013-01-13 03:06:00,44.0,43.7,30.12,East,92,0.0,0.0,99,0.00,,,0.00,Wunderground PWS Mod,2013-01-13 08:06:00,
2013-01-13 03:12:00,44.0,43.7,30.11,East,92,0.0,0.0,99,0.00,,,0.00,Wunderground PWS Mod,2013-01-13 08:12:00,
2013-01-13 03:17:00,44.0,43.7,30.11,East,92,0.0,0.0,99,0.00,,,0.00,Wunderground PWS Mod,2013-01-13 08:17:00,
2013-01-13 03:22:00,44.0,43.7,30.11,East,92,0.0,0.0,99,0.00,,,0.00,Wunderground PWS Mod,2013-01-13 08:22:00,
2013-01-13 03:27:00,43.9,43.6,30.11,SW,225,0.0,0.0,99,0.00,,,0.00,Wunderground PWS Mod,2013-01-13 08:27:00,
2013-01-13 03:33:00,43.9,43.6,30.11,SW,225,0.0,0.0,99,0.00,,,0.00,Wunderground PWS Mod,2013-01-13 08:33:00,
2013-01-13 03:38:00,43.9,43.6,30.10,SW,225,0.0,0.0,99,0.00,,,0.00,Wunderground PWS Mod,2013-01-13 08:38:00,
2013-01-13 03:44:00,43.8,43.5,30.09,SW,225,0.0,0.0,99,0.00,,,0.00,Wunderground PWS Mod,2013-01-13 08:44:00,
2013-01-13 03:50:00,43.8,43.5,30.09,SW,225,0.0,0.0,99,0.00,,,0.00,Wunderground PWS Mod,2013-01-13 08:50:00,
2013-01-13 03:55:00,43.8,43.5,30.09,SW,225,0.0,0.0,99,0.00,,,0.00,Wunderground PWS Mod,2013-01-13 08:55:00,
2013-01-13 04:00:00,43.7,43.4,30.08,SW,225,0.0,0.0,99,0.00,,,0.00,Wunderground PWS Mod,2013-01-13 09:00:00,
2013-01-13 04:06:00,43.7,43.4,30.08,SW,225,0.0,0.0,99,0.00,,,0.00,Wunderground PWS Mod,2013-01-13 09:06:00,
2013-01-13 04:11:00,43.7,43.2,30.07,SW,225,0.0,0.0,98,0.00,,,0.00,Wunderground PWS Mod,2013-01-13 09:11:00,
2013-01-13 04:14:00,43.7,43.4,30.08,N/A,-737280,0.0,0.0,99,0.00,,,0.00,Wunderground PWS Mod,2013-01-13 09:14:00,
2013-01-13 04:17:00,43.6,43.3,30.07,SW,225,0.0,0.0,99,0.00,,,0.00,Wunderground PWS Mod,2013-01-13 09:17:00,
2013-01-13 04:22:00,43.5,43.2,30.07,SW,225,0.0,0.0,99,0.00,,,0.00,Wunderground PWS Mod,2013-01-13 09:22:00,
2013-01-13 04:28:00,43.5,43.2,30.07,SW,225,0.0,0.0,99,0.00,,,0.00,Wunderground PWS Mod,2013-01-13 09:28:00,
2013-01-13 04:34:00,43.5,43.2,30.07,SW,225,0.0,0.0,99,0.00,,,0.00,Wunderground PWS Mod,2013-01-13 09:34:00,
2013-01-13 04:39:00,43.4,43.1,30.06,SW,225,0.0,0.0,99,0.00,,,0.00,Wunderground PWS Mod,2013-01-13 09:39:00,
2013-01-13 04:44:00,43.3,43.0,30.05,SE,146,0.0,0.0,99,0.00,,,0.00,Wunderground PWS Mod,2013-01-13 09:44:00,
2013-01-13 04:50:00,43.3,43.0,30.05,SE,146,0.0,0.0,99,0.00,,,0.00,Wunderground PWS Mod,2013-01-13 09:50:00,
2013-01-13 04:55:00,43.2,42.9,30.05,SE,146,0.0,0.0,99,0.00,,,0.00,Wunderground PWS Mod,2013-01-13 09:55:00,
2013-01-13 05:01:00,43.2,42.9,30.06,SE,146,0.0,0.0,99,0.00,,,0.00,Wunderground PWS Mod,2013-01-13 10:01:00,
2013-01-13 05:06:00,43.3,43.0,30.09,West,278,1.0,2.0,99,0.00,,,0.00,Wunderground PWS Mod,2013-01-13 10:06:00,
2013-01-13 05:12:00,43.3,43.0,30.09,West,277,2.0,2.0,99,0.00,,,0.00,Wunderground PWS Mod,2013-01-13 10:12:00,
2013-01-13 05:17:00,43.4,43.1,30.09,West,277,1.0,1.0,99,0.00,,,0.00,Wunderground PWS Mod,2013-01-13 10:17:00,
2013-01-13 05:22:00,43.4,43.1,30.09,West,277,0.0,0.0,99,0.00,,,0.00,Wunderground PWS Mod,2013-01-13 10:22:00,
2013-01-13 05:27:00,43.4,43.1,30.08,West,277,0.0,0.0,99,0.00,,,0.00,Wunderground PWS Mod,2013-01-13 10:27:00,
2013-01-13 05:33:00,43.4,43.1,30.09,West,277,0.0,0.0,99,0.00,,,0.00,Wunderground PWS Mod,2013-01-13 10:33:00,
2013-01-13 05:38:00,43.4,43.1,30.08,West,277,0.0,0.0,99,0.00,,,0.00,Wunderground PWS Mod,2013-01-13 10:38:00,
2013-01-13 05:44:00,43.4,43.1,30.08,West,278,0.0,0.0,99,0.00,,,0.00,Wunderground PWS Mod,2013-01-13 10:44:00,
2013-01-13 05:50:00,43.4,43.1,30.08,West,278,0.0,0.0,99,0.00,,,0.00,Wunderground PWS Mod,2013-01-13 10:50:00,
2013-01-13 05:55:00,43.4,43.1,30.09,West,277,0.0,0.0,99,0.00,,,0.00,Wunderground PWS Mod,2013-01-13 10:55:00,
2013-01-13 06:00:00,43.4,43.1,30.08,West,277,0.0,0.0,99,0.00,,,0.00,Wunderground PWS Mod,2013-01-13 11:00:00,
2013-01-13 06:06:00,43.4,43.1,30.09,West,278,0.0,0.0,99,0.00,,,0.00,Wunderground PWS Mod,2013-01-13 11:06:00,
2013-01-13 06:11:00,43.4,43.1,30.09,West,278,0.0,0.0,99,0.00,,,0.00,Wunderground PWS Mod,2013-01-13 11:11:00,
2013-01-13 06:16:00,43.4,43.1,30.09,West,277,0.0,0.0,99,0.00,,,0.00,Wunderground PWS Mod,2013-01-13 11:16:00,
2013-01-13 06:22:00,43.4,43.1,30.09,West,278,0.0,0.0,99,0.00,,,0.00,Wunderground PWS Mod,2013-01-13 11:22:00,
2013-01-13 06:27:00,43.4,43.1,30.09,West,277,0.0,0.0,99,0.00,,,0.00,Wunderground PWS Mod,2013-01-13 11:27:00,
2013-01-13 06:32:00,43.3,43.0,30.09,West,278,0.0,0.0,99,0.00,,,0.00,Wunderground PWS Mod,2013-01-13 11:32:00,
2013-01-13 06:37:00,43.3,43.0,30.09,West,277,0.0,0.0,99,0.00,,,0.00,Wunderground PWS Mod,2013-01-13 11:37:00,
2013-01-13 06:42:00,43.3,43.0,30.09,West,269,0.0,0.0,99,0.00,,,0.00,Wunderground PWS Mod,2013-01-13 11:42:00,
2013-01-13 06:47:00,43.3,43.0,30.10,West,269,0.0,0.0,99,0.00,,,0.00,Wunderground PWS Mod,2013-01-13 11:47:00,
2013-01-13 06:53:00,43.3,43.0,30.10,West,270,0.0,0.0,99,0.00,,,0.00,Wunderground PWS Mod,2013-01-13 11:53:00,
2013-01-13 06:58:00,43.3,43.0,30.10,West,269,0.0,0.0,99,0.00,,,0.00,Wunderground PWS Mod,2013-01-13 11:58:00,
2013-01-13 07:04:00,43.2,42.9,30.10,West,270,0.0,0.0,99,0.00,,,0.00,Wunderground PWS Mod,2013-01-13 12:04:00,
2013-01-13 07:10:00,43.1,42.8,30.11,West,269,0.0,0.0,99,0.00,,,0.00,Wunderground PWS Mod,2013-01-13 12:10:00,
2013-01-13 07:15:00,43.1,42.8,30.11,West,269,0.0,0.0,99,0.00,,,0.00,Wunderground PWS Mod,2013-01-13 12:15:00,
2013-01-13 07:20:00,43.0,42.7,30.11,West,269,0.0,0.0,99,0.00,,,0.00,Wunderground PWS Mod,2013-01-13 12:20:00,
2013-01-13 07:26:00,42.9,42.6,30.11,West,269,0.0,0.0,99,0.00,,,0.00,Wunderground PWS Mod,2013-01-13 12:26:00,
2013-01-13 07:31:00,42.9,42.6,30.11,West,269,0.0,0.0,99,0.00,,,0.00,Wunderground PWS Mod,2013-01-13 12:31:00,
2013-01-13 07:37:00,43.0,42.7,30.11,West,269,0.0,0.0,99,0.00,,,0.00,Wunderground PWS Mod,2013-01-13 12:37:00,
2013-01-13 07:42:00,43.0,42.7,30.11,West,269,0.0,0.0,99,0.00,,,0.00,Wunderground PWS Mod,2013-01-13 12:42:00,
2013-01-13 07:47:00,43.1,42.8,30.11,West,269,0.0,0.0,99,0.00,,,0.00,Wunderground PWS Mod,2013-01-13 12:47:00,
2013-01-13 07:52:00,43.1,42.8,30.11,West,269,0.0,0.0,99,0.00,,,0.00,Wunderground PWS Mod,2013-01-13 12:52:00,
2013-01-13 07:57:00,43.2,42.9,30.11,West,270,0.0,0.0,99,0.00,,,0.00,Wunderground PWS Mod,2013-01-13 12:57:00,
2013-01-13 08:03:00,43.2,42.9,30.11,West,269,0.0,0.0,99,0.00,,,0.00,Wunderground PWS Mod,2013-01-13 13:03:00,
2013-01-13 08:08:00,43.2,42.9,30.11,West,269,0.0,0.0,99,0.00,,,0.00,Wunderground PWS Mod,2013-01-13 13:08:00,
2013-01-13 08:09:00,43.2,42.9,30.11,N/A,-737280,0.0,0.0,99,0.00,,,0.00,Wunderground PWS Mod,2013-01-13 13:09:00,
2013-01-13 08:14:00,43.2,42.9,30.11,West,269,0.0,0.0,99,0.00,,,0.00,Wunderground PWS Mod,2013-01-13 13:14:00,
2013-01-13 08:20:00,43.1,42.8,30.11,South,170,0.0,0.0,99,0.00,,,0.00,Wunderground PWS Mod,2013-01-13 13:20:00,
2013-01-13 08:25:00,43.1,42.8,30.11,South,170,0.0,0.0,99,0.00,,,0.00,Wunderground PWS Mod,2013-01-13 13:25:00,
2013-01-13 08:30:00,43.2,42.9,30.11,South,179,0.0,0.0,99,0.00,,,0.00,Wunderground PWS Mod,2013-01-13 13:30:00,
2013-01-13 08:36:00,43.2,42.9,30.12,South,176,0.0,0.0,99,0.00,,,0.00,Wunderground PWS Mod,2013-01-13 13:36:00,
2013-01-13 08:41:00,43.3,43.0,30.12,WSW,244,0.0,0.0,99,0.00,,,0.00,Wunderground PWS Mod,2013-01-13 13:41:00,
2013-01-13 08:46:00,43.3,43.0,30.12,WSW,244,0.0,0.0,99,0.00,,,0.00,Wunderground PWS Mod,2013-01-13 13:46:00,
2013-01-13 08:52:00,43.3,43.0,30.12,WSW,243,0.0,0.0,99,0.00,,,0.00,Wunderground PWS Mod,2013-01-13 13:52:00,
2013-01-13 08:57:00,43.2,42.9,30.12,WSW,242,0.0,0.0,99,0.00,,,0.00,Wunderground PWS Mod,2013-01-13 13:57:00,
2013-01-13 09:03:00,43.0,42.7,30.12,SW,236,0.0,0.0,99,0.00,,,0.00,Wunderground PWS Mod,2013-01-13 14:03:00,
2013-01-13 09:08:00,43.1,42.8,30.13,SW,236,0.0,0.0,99,0.00,,,0.00,Wunderground PWS Mod,2013-01-13 14:08:00,
2013-01-13 09:13:00,43.2,42.9,30.13,SW,236,0.0,0.0,99,0.00,,,0.00,Wunderground PWS Mod,2013-01-13 14:13:00,
2013-01-13 09:18:00,43.3,43.0,30.12,SW,236,0.0,0.0,99,0.00,,,0.00,Wunderground PWS Mod,2013-01-13 14:18:00,
2013-01-13 09:24:00,43.3,43.0,30.12,SSW,206,0.0,0.0,99,0.00,,,0.00,Wunderground PWS Mod,2013-01-13 14:24:00,
2013-01-13 09:30:00,43.4,43.1,30.13,SSW,210,0.0,0.0,99,0.00,,,0.00,Wunderground PWS Mod,2013-01-13 14:30:00,
2013-01-13 09:35:00,43.5,43.2,30.13,SSW,207,0.0,0.0,99,0.00,,,0.00,Wunderground PWS Mod,2013-01-13 14:35:00,
2013-01-13 09:41:00,43.5,43.2,30.13,SSW,207,0.0,0.0,99,0.00,,,0.00,Wunderground PWS Mod,2013-01-13 14:41:00,
2013-01-13 09:46:00,43.6,43.3,30.13,SW,214,0.0,0.0,99,0.00,,,0.00,Wunderground PWS Mod,2013-01-13 14:46:00,
2013-01-13 09:51:00,43.6,43.3,30.13,SW,236,0.0,0.0,99,0.00,,,0.00,Wunderground PWS Mod,2013-01-13 14:51:00,
2013-01-13 09:57:00,43.5,43.2,30.13,SW,236,0.0,0.0,99,0.00,,,0.00,Wunderground PWS Mod,2013-01-13 14:57:00,
2013-01-13 10:02:00,43.6,43.3,30.13,SW,233,0.0,0.0,99,0.00,,,0.00,Wunderground PWS Mod,2013-01-13 15:02:00,
2013-01-13 10:07:00,43.4,43.1,30.13,SW,228,0.0,0.0,99,0.00,,,0.00,Wunderground PWS Mod,2013-01-13 15:07:00,
2013-01-13 10:12:00,43.4,43.1,30.12,SW,227,0.0,0.0,99,0.00,,,0.00,Wunderground PWS Mod,2013-01-13 15:12:00,
2013-01-13 10:17:00,43.4,43.1,30.12,SW,227,0.0,0.0,99,0.00,,,0.00,Wunderground PWS Mod,2013-01-13 15:17:00,
2013-01-13 10:23:00,43.4,43.1,30.12,SSW,200,0.0,0.0,99,0.00,,,0.00,Wunderground PWS Mod,2013-01-13 15:23:00,
2013-01-13 10:28:00,43.6,43.3,30.12,SSW,200,0.0,0.0,99,0.00,,,0.00,Wunderground PWS Mod,2013-01-13 15:28:00,
2013-01-13 10:34:00,43.8,43.5,30.12,SSW,200,0.0,0.0,99,0.00,,,0.00,Wunderground PWS Mod,2013-01-13 15:34:00,
2013-01-13 10:40:00,44.1,43.8,30.12,SSW,200,0.0,0.0,99,0.00,,,0.00,Wunderground PWS Mod,2013-01-13 15:40:00,
2013-01-13 10:45:00,44.2,43.9,30.12,SSW,200,0.0,0.0,99,0.00,,,0.00,Wunderground PWS Mod,2013-01-13 15:45:00,
2013-01-13 10:51:00,44.1,43.8,30.12,SSW,200,0.0,0.0,99,0.00,,,0.00,Wunderground PWS Mod,2013-01-13 15:51:00,
2013-01-13 10:56:00,44.2,43.9,30.11,SSW,200,0.0,0.0,99,0.00,,,0.00,Wunderground PWS Mod,2013-01-13 15:56:00,
2013-01-13 11:01:00,44.6,44.3,30.11,SW,232,0.0,0.0,99,0.00,,,0.00,Wunderground PWS Mod,2013-01-13 16:01:00,
2013-01-13 11:06:00,44.9,44.6,30.11,WSW,248,0.0,0.0,99,0.00,,,0.00,Wunderground PWS Mod,2013-01-13 16:06:00,
2013-01-13 11:12:00,45.1,44.8,30.10,SW,223,0.0,0.0,99,0.00,,,0.00,Wunderground PWS Mod,2013-01-13 16:12:00,
2013-01-13 11:17:00,45.3,45.0,30.11,SW,223,0.0,0.0,99,0.00,,,0.00,Wunderground PWS Mod,2013-01-13 16:17:00,
2013-01-13 11:23:00,45.3,45.0,30.11,WSW,248,0.0,0.0,99,0.00,,,0.00,Wunderground PWS Mod,2013-01-13 16:23:00,
2013-01-13 11:28:00,45.2,44.9,30.11,West,266,0.0,0.0,99,0.00,,,0.00,Wunderground PWS Mod,2013-01-13 16:28:00,
2013-01-13 11:34:00,45.0,44.7,30.10,WSW,238,0.0,0.0,99,0.00,,,0.00,Wunderground PWS Mod,2013-01-13 16:34:00,
2013-01-13 11:40:00,45.0,44.7,30.10,WSW,254,0.0,0.0,99,0.00,,,0.00,Wunderground PWS Mod,2013-01-13 16:40:00,
2013-01-13 11:45:00,44.9,44.6,30.10,West,259,0.0,0.0,99,0.00,,,0.00,Wunderground PWS Mod,2013-01-13 16:45:00,
2013-01-13 11:50:00,44.7,44.4,30.10,WSW,249,1.0,1.0,99,0.00,,,0.00,Wunderground PWS Mod,2013-01-13 16:50:00,
2013-01-13 11:55:00,44.9,44.6,30.10,WSW,249,0.0,0.0,99,0.00,,,0.00,Wunderground PWS Mod,2013-01-13 16:55:00,
2013-01-13 12:01:00,45.1,44.8,30.10,WSW,249,0.0,0.0,99,0.00,,,0.00,Wunderground PWS Mod,2013-01-13 17:01:00,
2013-01-13 12:07:00,44.9,44.6,30.10,West,263,0.0,3.0,99,0.00,,,0.00,Wunderground PWS Mod,2013-01-13 17:07:00,
2013-01-13 12:12:00,45.2,44.9,30.09,WSW,256,0.0,3.0,99,0.00,,,0.00,Wunderground PWS Mod,2013-01-13 17:12:00,
2013-01-13 12:14:00,45.1,44.8,30.10,WSW,248,0.0,3.0,99,0.00,,,0.00,Wunderground PWS Mod,2013-01-13 17:14:00,
2013-01-13 12:18:00,45.4,45.1,30.09,WSW,245,0.0,3.0,99,0.00,,,0.00,Wunderground PWS Mod,2013-01-13 17:18:00,
2013-01-13 12:23:00,45.5,45.2,30.09,WSW,244,0.0,3.0,99,0.00,,,0.00,Wunderground PWS Mod,2013-01-13 17:23:00,
2013-01-13 12:28:00,45.4,45.1,30.08,WSW,244,0.0,3.0,99,0.00,,,0.00,Wunderground PWS Mod,2013-01-13 17:28:00,
2013-01-13 12:34:00,45.7,45.4,30.08,West,269,0.0,3.0,99,0.00,,,0.00,Wunderground PWS Mod,2013-01-13 17:34:00,
2013-01-13 12:40:00,45.8,45.5,30.08,SW,234,0.0,3.0,99,0.00,,,0.00,Wunderground PWS Mod,2013-01-13 17:40:00,
2013-01-13 12:45:00,46.0,45.7,30.08,WSW,244,0.0,3.0,99,0.00,,,0.00,Wunderground PWS Mod,2013-01-13 17:45:00,
2013-01-13 12:51:00,46.2,45.9,30.08,West,263,1.0,3.0,99,0.00,,,0.00,Wunderground PWS Mod,2013-01-13 17:51:00,
2013-01-13 12:56:00,46.4,46.1,30.07,SW,229,1.0,3.0,99,0.00,,,0.00,Wunderground PWS Mod,2013-01-13 17:56:00,
2013-01-13 13:01:00,46.8,46.5,30.07,SSW,204,0.0,3.0,99,0.00,,,0.00,Wunderground PWS Mod,2013-01-13 18:01:00,
2013-01-13 13:06:00,46.9,46.6,30.07,WSW,252,0.0,3.0,99,0.00,,,0.00,Wunderground PWS Mod,2013-01-13 18:06:00,
2013-01-13 13:12:00,46.6,46.3,30.07,West,266,1.0,3.0,99,0.00,,,0.00,Wunderground PWS Mod,2013-01-13 18:12:00,
2013-01-13 13:17:00,46.8,46.5,30.07,SSW,203,1.0,3.0,99,0.00,,,0.00,Wunderground PWS Mod,2013-01-13 18:17:00,
2013-01-13 13:22:00,47.0,46.7,30.07,SW,221,0.0,3.0,99,0.00,,,0.00,Wunderground PWS Mod,2013-01-13 18:22:00,
2013-01-13 13:27:00,47.3,47.0,30.07,WSW,238,0.0,3.0,99,0.00,,,0.00,Wunderground PWS Mod,2013-01-13 18:27:00,
2013-01-13 13:33:00,47.2,46.9,30.08,West,276,1.0,3.0,99,0.00,,,0.00,Wunderground PWS Mod,2013-01-13 18:33:00,
2013-01-13 13:38:00,46.9,46.6,30.08,WSW,257,2.0,3.0,99,0.00,,,0.00,Wunderground PWS Mod,2013-01-13 18:38:00,
2013-01-13 13:44:00,47.0,46.5,30.07,WSW,254,2.0,3.0,98,0.00,,,0.00,Wunderground PWS Mod,2013-01-13 18:44:00,
2013-01-13 13:49:00,47.4,46.9,30.08,WSW,242,1.0,3.0,98,0.00,,,0.00,Wunderground PWS Mod,2013-01-13 18:49:00,
2013-01-13 13:54:00,47.7,47.2,30.08,West,261,0.0,3.0,98,0.00,,,0.00,Wunderground PWS Mod,2013-01-13 18:54:00,
2013-01-13 14:00:00,47.9,47.4,30.07,West,259,0.0,3.0,98,0.00,,,0.00,Wunderground PWS Mod,2013-01-13 19:00:00,
2013-01-13 14:05:00,48.2,47.4,30.07,WSW,257,0.0,3.0,97,0.00,,,0.00,Wunderground PWS Mod,2013-01-13 19:05:00,
2013-01-13 14:11:00,48.6,47.5,30.06,SSW,193,0.0,3.0,96,0.00,,,0.00,Wunderground PWS Mod,2013-01-13 19:11:00,
2013-01-13 14:16:00,48.6,47.2,30.07,West,259,0.0,3.0,95,0.00,,,0.00,Wunderground PWS Mod,2013-01-13 19:16:00,
2013-01-13 14:21:00,48.6,47.2,30.07,WSW,237,1.0,3.0,95,0.00,,,0.00,Wunderground PWS Mod,2013-01-13 19:21:00,
2013-01-13 14:26:00,48.6,47.0,30.06,SW,234,1.0,3.0,94,0.00,,,0.00,Wunderground PWS Mod,2013-01-13 19:26:00,
2013-01-13 14:32:00,48.4,46.8,30.06,West,265,1.0,3.0,94,0.00,,,0.00,Wunderground PWS Mod,2013-01-13 19:32:00,
2013-01-13 14:37:00,48.1,46.5,30.06,WSW,238,1.0,3.0,94,0.00,,,0.00,Wunderground PWS Mod,2013-01-13 19:37:00,
2013-01-13 14:43:00,47.5,45.9,30.05,WSW,253,1.0,3.0,94,0.00,,,0.00,Wunderground PWS Mod,2013-01-13 19:43:00,
2013-01-13 14:48:00,47.3,45.9,30.05,SW,236,1.0,3.0,95,0.00,,,0.00,Wunderground PWS Mod,2013-01-13 19:48:00,
2013-01-13 14:54:00,47.2,46.1,30.05,SW,230,0.0,3.0,96,0.00,,,0.00,Wunderground PWS Mod,2013-01-13 19:54:00,
2013-01-13 14:59:00,47.2,46.1,30.04,SW,216,0.0,3.0,96,0.00,,,0.00,Wunderground PWS Mod,2013-01-13 19:59:00,
2013-01-13 15:04:00,47.3,46.2,30.05,SW,227,0.0,3.0,96,0.00,,,0.00,Wunderground PWS Mod,2013-01-13 20:04:00,
2013-01-13 15:10:00,47.3,46.2,30.05,WSW,243,0.0,3.0,96,0.00,,,0.00,Wunderground PWS Mod,2013-01-13 20:10:00,
2013-01-13 15:15:00,47.3,46.5,30.05,WSW,248,0.0,3.0,97,0.00,,,0.00,Wunderground PWS Mod,2013-01-13 20:15:00,
2013-01-13 15:20:00,47.5,46.7,30.05,WSW,254,0.0,3.0,97,0.00,,,0.00,Wunderground PWS Mod,2013-01-13 20:20:00,
2013-01-13 15:26:00,47.5,46.7,30.05,WSW,240,0.0,3.0,97,0.00,,,0.00,Wunderground PWS Mod,2013-01-13 20:26:00,
2013-01-13 15:32:00,47.4,46.6,30.05,WSW,246,0.0,3.0,97,0.00,,,0.00,Wunderground PWS Mod,2013-01-13 20:32:00,
2013-01-13 15:37:00,47.4,46.6,30.05,SW,223,0.0,3.0,97,0.00,,,0.00,Wunderground PWS Mod,2013-01-13 20:37:00,
2013-01-13 15:42:00,47.3,46.5,30.05,West,265,0.0,3.0,97,0.00,,,0.00,Wunderground PWS Mod,2013-01-13 20:42:00,
2013-01-13 15:48:00,47.2,46.4,30.05,WSW,246,0.0,3.0,97,0.00,,,0.00,Wunderground PWS Mod,2013-01-13 20:48:00,
2013-01-13 15:53:00,47.1,46.3,30.05,WSW,239,0.0,3.0,97,0.00,,,0.00,Wunderground PWS Mod,2013-01-13 20:53:00,
2013-01-13 15:58:00,47.0,46.2,30.05,WSW,239,0.0,3.0,97,0.00,,,0.00,Wunderground PWS Mod,2013-01-13 20:58:00,
2013-01-13 16:04:00,46.9,46.1,30.04,WSW,240,0.0,3.0,97,0.00,,,0.00,Wunderground PWS Mod,2013-01-13 21:04:00,
2013-01-13 16:09:00,46.6,45.8,30.04,WSW,248,0.0,3.0,97,0.00,,,0.00,Wunderground PWS Mod,2013-01-13 21:09:00,
2013-01-13 16:14:00,46.9,46.1,30.04,WSW,248,0.0,3.0,97,0.00,,,0.00,Wunderground PWS Mod,2013-01-13 21:14:00,
2013-01-13 16:15:00,46.4,45.6,30.04,SW,233,0.0,3.0,97,0.00,,,0.00,Wunderground PWS Mod,2013-01-13 21:15:00,
2013-01-13 16:20:00,46.1,45.0,30.04,WSW,244,0.0,3.0,96,0.00,,,0.00,Wunderground PWS Mod,2013-01-13 21:20:00,
2013-01-13 16:25:00,46.0,45.2,30.04,WSW,243,0.0,3.0,97,0.00,,,0.00,Wunderground PWS Mod,2013-01-13 21:25:00,
2013-01-13 16:30:00,45.8,45.0,30.04,SW,235,0.0,3.0,97,0.00,,,0.00,Wunderground PWS Mod,2013-01-13 21:30:00,
2013-01-13 16:36:00,45.7,44.9,30.03,SW,235,0.0,3.0,97,0.00,,,0.00,Wunderground PWS Mod,2013-01-13 21:36:00,
2013-01-13 16:41:00,45.7,44.9,30.03,SW,235,0.0,3.0,97,0.00,,,0.00,Wunderground PWS Mod,2013-01-13 21:41:00,
2013-01-13 16:46:00,45.6,44.8,30.03,SW,229,0.0,3.0,97,0.00,,,0.00,Wunderground PWS Mod,2013-01-13 21:46:00,
2013-01-13 16:52:00,45.6,44.8,30.03,WSW,240,0.0,3.0,97,0.00,,,0.00,Wunderground PWS Mod,2013-01-13 21:52:00,
2013-01-13 16:57:00,45.4,44.6,30.04,SW,227,0.0,3.0,97,0.00,,,0.00,Wunderground PWS Mod,2013-01-13 21:57:00,
2013-01-13 17:03:00,45.3,44.5,30.03,WSW,252,0.0,3.0,97,0.00,,,0.00,Wunderground PWS Mod,2013-01-13 22:03:00,
2013-01-13 17:08:00,45.3,44.5,30.03,WSW,250,1.0,3.0,97,0.00,,,0.00,Wunderground PWS Mod,2013-01-13 22:08:00,
2013-01-13 17:14:00,45.2,44.4,30.03,SW,234,1.0,3.0,97,0.00,,,0.00,Wunderground PWS Mod,2013-01-13 22:14:00,
2013-01-13 17:20:00,45.2,44.4,30.04,WSW,238,0.0,3.0,97,0.00,,,0.00,Wunderground PWS Mod,2013-01-13 22:20:00,
2013-01-13 17:25:00,45.3,44.5,30.04,SW,236,0.0,3.0,97,0.00,,,0.00,Wunderground PWS Mod,2013-01-13 22:25:00,
2013-01-13 17:31:00,45.4,44.6,30.03,SW,231,0.0,3.0,97,0.00,,,0.00,Wunderground PWS Mod,2013-01-13 22:31:00,
2013-01-13 17:36:00,45.5,44.7,30.03,SW,231,0.0,3.0,97,0.00,,,0.00,Wunderground PWS Mod,2013-01-13 22:36:00,
2013-01-13 17:42:00,45.5,45.0,30.02,SW,232,0.0,3.0,98,0.00,,,0.00,Wunderground PWS Mod,2013-01-13 22:42:00,
2013-01-13 17:47:00,45.5,45.0,30.02,SW,229,0.0,3.0,98,0.00,,,0.00,Wunderground PWS Mod,2013-01-13 22:47:00,
2013-01-13 17:53:00,45.4,44.9,30.03,WSW,240,0.0,3.0,98,0.00,,,0.00,Wunderground PWS Mod,2013-01-13 22:53:00,
2013-01-13 17:58:00,45.5,45.0,30.02,WSW,245,0.0,3.0,98,0.00,,,0.00,Wunderground PWS Mod,2013-01-13 22:58:00,
2013-01-13 18:04:00,45.6,45.1,30.02,SW,226,1.0,3.0,98,0.00,,,0.00,Wunderground PWS Mod,2013-01-13 23:04:00,
2013-01-13 18:10:00,45.7,45.2,30.02,WSW,237,0.0,3.0,98,0.00,,,0.00,Wunderground PWS Mod,2013-01-13 23:10:00,
2013-01-13 18:15:00,45.8,45.3,30.02,WSW,237,0.0,3.0,98,0.00,,,0.00,Wunderground PWS Mod,2013-01-13 23:15:00,
2013-01-13 18:20:00,45.9,45.4,30.02,WSW,237,0.0,3.0,98,0.00,,,0.00,Wunderground PWS Mod,2013-01-13 23:20:00,
2013-01-13 18:26:00,45.9,45.4,30.02,WSW,237,0.0,3.0,98,0.00,,,0.00,Wunderground PWS Mod,2013-01-13 23:26:00,
2013-01-13 18:32:00,45.9,45.4,30.02,WSW,237,0.0,3.0,98,0.00,,,0.00,Wunderground PWS Mod,2013-01-13 23:32:00,
2013-01-13 18:37:00,45.9,45.4,30.02,SW,236,0.0,3.0,98,0.00,,,0.00,Wunderground PWS Mod,2013-01-13 23:37:00,
2013-01-13 18:42:00,46.1,45.6,30.02,WSW,240,0.0,3.0,98,0.00,,,0.00,Wunderground PWS Mod,2013-01-13 23:42:00,
2013-01-13 18:48:00,46.2,45.7,30.02,WSW,249,0.0,3.0,98,0.00,,,0.00,Wunderground PWS Mod,2013-01-13 23:48:00,
2013-01-13 18:54:00,46.3,45.8,30.02,WSW,246,0.0,3.0,98,0.00,,,0.00,Wunderground PWS Mod,2013-01-13 23:54:00,
2013-01-13 19:00:00,46.4,45.9,30.02,SSW,211,0.0,3.0,98,0.00,,,0.00,Wunderground PWS Mod,2013-01-14 00:00:00,
2013-01-13 19:05:00,46.5,46.0,30.02,SW,232,0.0,3.0,98,0.00,,,0.00,Wunderground PWS Mod,2013-01-14 00:05:00,
2013-01-13 19:10:00,46.6,46.1,30.01,SW,229,0.0,3.0,98,0.00,,,0.00,Wunderground PWS Mod,2013-01-14 00:10:00,
2013-01-13 19:16:00,46.6,46.1,30.01,SW,229,0.0,3.0,98,0.00,,,0.00,Wunderground PWS Mod,2013-01-14 00:16:00,
2013-01-13 19:22:00,46.7,46.2,30.01,WSW,244,0.0,3.0,98,0.00,,,0.00,Wunderground PWS Mod,2013-01-14 00:22:00,
2013-01-13 19:27:00,46.7,46.2,30.01,WSW,244,0.0,3.0,98,0.00,,,0.00,Wunderground PWS Mod,2013-01-14 00:27:00,
2013-01-13 19:33:00,46.8,46.3,30.01,WSW,244,0.0,3.0,98,0.00,,,0.00,Wunderground PWS Mod,2013-01-14 00:33:00,
2013-01-13 19:38:00,46.8,46.3,30.01,WSW,244,0.0,3.0,98,0.00,,,0.00,Wunderground PWS Mod,2013-01-14 00:38:00,
2013-01-13 19:44:00,46.8,46.3,30.02,WSW,258,0.0,3.0,98,0.00,,,0.00,Wunderground PWS Mod,2013-01-14 00:44:00,
2013-01-13 19:50:00,46.8,46.3,30.02,WSW,258,1.0,3.0,98,0.00,,,0.00,Wunderground PWS Mod,2013-01-14 00:50:00,
2013-01-13 19:55:00,46.7,46.2,30.02,WSW,258,0.0,3.0,98,0.00,,,0.00,Wunderground PWS Mod,2013-01-14 00:55:00,
2013-01-13 20:00:00,46.6,46.1,30.01,WSW,258,0.0,3.0,98,0.00,,,0.00,Wunderground PWS Mod,2013-01-14 01:00:00,
2013-01-13 20:06:00,46.6,46.1,30.01,WSW,258,0.0,4.0,98,0.00,,,0.00,Wunderground PWS Mod,2013-01-14 01:06:00,
2013-01-13 20:11:00,46.5,46.0,30.02,WSW,257,0.0,4.0,98,0.00,,,0.00,Wunderground PWS Mod,2013-01-14 01:11:00,
2013-01-13 20:14:00,46.6,46.1,30.01,WSW,248,0.0,4.0,98,0.00,,,0.01,Wunderground PWS Mod,2013-01-14 01:14:00,
2013-01-13 20:17:00,46.5,46.0,30.02,West,260,0.0,4.0,98,0.00,,,0.00,Wunderground PWS Mod,2013-01-14 01:17:00,
2013-01-13 20:23:00,46.5,46.0,30.02,West,260,0.0,4.0,98,0.00,,,0.00,Wunderground PWS Mod,2013-01-14 01:23:00,
2013-01-13 20:28:00,46.4,45.9,30.02,West,261,0.0,4.0,98,0.00,,,0.00,Wunderground PWS Mod,2013-01-14 01:28:00,
2013-01-13 20:34:00,46.4,45.9,30.01,West,261,0.0,4.0,98,0.00,,,0.00,Wunderground PWS Mod,2013-01-14 01:34:00,
2013-01-13 20:40:00,46.5,46.0,30.02,West,261,0.0,4.0,98,0.00,,,0.00,Wunderground PWS Mod,2013-01-14 01:40:00,
2013-01-13 20:45:00,46.6,46.1,30.02,West,261,0.0,4.0,98,0.00,,,0.00,Wunderground PWS Mod,2013-01-14 01:45:00,
2013-01-13 20:50:00,46.7,46.2,30.02,West,261,0.0,4.0,98,0.00,,,0.00,Wunderground PWS Mod,2013-01-14 01:50:00,
2013-01-13 20:55:00,46.8,46.3,30.02,West,262,0.0,4.0,98,0.00,,,0.00,Wunderground PWS Mod,2013-01-14 01:55:00,
2013-01-13 21:01:00,46.9,46.4,30.02,WSW,250,0.0,4.0,98,0.00,,,0.00,Wunderground PWS Mod,2013-01-14 02:01:00,
2013-01-13 21:06:00,46.9,46.4,30.02,WSW,250,0.0,4.0,98,0.00,,,0.00,Wunderground PWS Mod,2013-01-14 02:06:00,
2013-01-13 21:11:00,46.9,46.4,30.01,WSW,250,0.0,4.0,98,0.00,,,0.00,Wunderground PWS Mod,2013-01-14 02:11:00,
2013-01-13 21:17:00,47.0,46.5,30.01,WSW,257,0.0,4.0,98,0.00,,,0.00,Wunderground PWS Mod,2013-01-14 02:17:00,
2013-01-13 21:22:00,47.0,46.5,30.01,WSW,253,0.0,4.0,98,0.00,,,0.00,Wunderground PWS Mod,2013-01-14 02:22:00,
2013-01-13 21:27:00,47.0,46.5,30.01,WSW,253,0.0,4.0,98,0.00,,,0.00,Wunderground PWS Mod,2013-01-14 02:27:00,
2013-01-13 21:33:00,47.0,46.5,30.01,WSW,253,0.0,4.0,98,0.00,,,0.00,Wunderground PWS Mod,2013-01-14 02:33:00,
2013-01-13 21:38:00,47.1,46.6,30.01,WSW,253,0.0,4.0,98,0.00,,,0.00,Wunderground PWS Mod,2013-01-14 02:38:00,
2013-01-13 21:44:00,47.1,46.6,30.01,WSW,246,0.0,4.0,98,0.00,,,0.00,Wunderground PWS Mod,2013-01-14 02:44:00,
2013-01-13 21:50:00,47.1,46.6,30.00,WSW,246,0.0,4.0,98,0.00,,,0.00,Wunderground PWS Mod,2013-01-14 02:50:00,
2013-01-13 21:55:00,47.1,46.6,30.00,WSW,246,0.0,4.0,98,0.00,,,0.00,Wunderground PWS Mod,2013-01-14 02:55:00,
2013-01-13 22:00:00,47.1,46.6,30.01,WSW,246,0.0,4.0,98,0.00,,,0.00,Wunderground PWS Mod,2013-01-14 03:00:00,
2013-01-13 22:05:00,47.1,46.8,30.00,WSW,246,0.0,4.0,99,0.00,,,0.00,Wunderground PWS Mod,2013-01-14 03:05:00,
2013-01-13 22:11:00,47.1,46.8,30.00,WSW,246,0.0,4.0,99,0.00,,,0.00,Wunderground PWS Mod,2013-01-14 03:11:00,
2013-01-13 22:16:00,47.2,46.9,30.00,WSW,239,0.0,4.0,99,0.00,,,0.00,Wunderground PWS Mod,2013-01-14 03:16:00,
2013-01-13 22:21:00,47.2,46.9,30.00,WSW,239,0.0,4.0,99,0.00,,,0.00,Wunderground PWS Mod,2013-01-14 03:21:00,
2013-01-13 22:26:00,47.3,47.0,30.01,WSW,241,0.0,4.0,99,0.00,,,0.00,Wunderground PWS Mod,2013-01-14 03:26:00,
2013-01-13 22:32:00,47.4,47.1,30.00,WSW,245,0.0,4.0,99,0.00,,,0.00,Wunderground PWS Mod,2013-01-14 03:32:00,
2013-01-13 22:37:00,47.4,47.1,30.00,WSW,245,0.0,4.0,99,0.00,,,0.00,Wunderground PWS Mod,2013-01-14 03:37:00,
2013-01-13 22:42:00,47.5,47.2,30.00,WSW,240,0.0,4.0,99,0.00,,,0.00,Wunderground PWS Mod,2013-01-14 03:42:00,
2013-01-13 22:47:00,47.5,47.2,30.00,WSW,240,0.0,4.0,99,0.00,,,0.00,Wunderground PWS Mod,2013-01-14 03:47:00,
2013-01-13 22:53:00,47.5,47.2,30.00,WSW,250,0.0,4.0,99,0.00,,,0.01,Wunderground PWS Mod,2013-01-14 03:53:00,
2013-01-13 22:58:00,47.5,47.2,30.00,West,259,0.0,4.0,99,0.00,,,0.01,Wunderground PWS Mod,2013-01-14 03:58:00,
2013-01-13 23:04:00,47.5,47.2,30.00,SW,227,0.0,4.0,99,0.00,,,0.01,Wunderground PWS Mod,2013-01-14 04:04:00,
2013-01-13 23:09:00,47.5,47.2,30.00,SW,227,0.0,4.0,99,0.00,,,0.01,Wunderground PWS Mod,2013-01-14 04:09:00,
2013-01-13 23:14:00,47.5,47.2,30.00,SW,235,0.0,4.0,99,0.00,,,0.01,Wunderground PWS Mod,2013-01-14 04:14:00,
2013-01-13 23:20:00,47.5,47.2,30.00,SW,236,0.0,4.0,99,0.00,,,0.01,Wunderground PWS Mod,2013-01-14 04:20:00,
2013-01-13 23:25:00,47.5,47.2,30.00,SW,235,0.0,4.0,99,0.00,,,0.01,Wunderground PWS Mod,2013-01-14 04:25:00,
2013-01-13 23:31:00,47.5,47.2,30.00,SW,236,0.0,4.0,99,0.00,,,0.01,Wunderground PWS Mod,2013-01-14 04:31:00,
2013-01-13 23:36:00,47.6,47.3,30.00,WSW,238,0.0,4.0,99,0.00,,,0.01,Wunderground PWS Mod,2013-01-14 04:36:00,
2013-01-13 23:41:00,47.6,47.3,30.00,WSW,238,0.0,4.0,99,0.00,,,0.01,Wunderground PWS Mod,2013-01-14 04:41:00,
2013-01-13 23:46:00,47.7,47.4,29.99,West,263,0.0,4.0,99,0.00,,,0.01,Wunderground PWS Mod,2013-01-14 04:46:00,
2013-01-13 23:52:00,47.7,47.4,29.99,West,263,0.0,4.0,99,0.00,,,0.01,Wunderground PWS Mod,2013-01-14 04:52:00,
2013-01-13 23:57:00,47.8,47.5,29.98,WSW,254,0.0,4.0,99,0.00,,,0.01,Wunderground PWS Mod,2013-01-14 04:57:00,